Weather in Novosergievka

Russia / Orenburg Oblast     52°04′21″N   53°38′40″E
temp.,
°C
wind,
m/s
gust,
m/s
humid.,
%
clouds,
%
prec.,
mm/h
press.,
hPa
HPBL,
m
25 january, mon
mon2523:00−2sw689798 0.0 1034356
02:00−1sw5897100 0.0 1034447
05:00−1ssw4798100 0.0 1034363
08:00−2sse3796100 0.0 1034275
11:00−7sse489697 0.0 1034204
14:00−5s599797 0.0 1034333
17:00−2s599698 0.1 1033596
20:00−1s51095100 0.0 1033518
26 january, tue
tue2623:00−1s51095100 0.1 1034522
02:00−2s61095100 0.0 1033512
05:00−8sse4996100 0.1 1033208
08:00−9sse4896100 0.0 1033186
11:00−8sse51094100 0.0 1034243
14:00−6sse6119197 0.0 1034311
17:00−6sse5109298 0.0 1033268
20:00−8sse5119498 0.0 1034228
27 january, wed
wed2723:00−9sse5129599 0.0 1033233
02:00−9s51295100 0.0 1033244
05:00−9s499594 0.0 1033177
08:00−9sse4995100 0.0 1033182
11:00−9sse51092100 0.0 1033254
14:00−7sse5109286 0.0 1033296
17:00−7sse5109379 0.0 1032244
20:00−9sse499329 0.0 1032180
28 january, thu
thu2823:00−10sse499241 0.0 1031178
02:00−10sse499197 0.0 1030185
05:00−11se478991 0.0 1030136
08:00−12se488994 0.0 1029137
11:00−11se4118897 0.0 1028220
14:00−8se61087100 0.0 1027274
17:00−8se61187100 0.0 1025249
20:00−8se61286100 0.0 1024235
29 january, fri
fri2923:00−9se61286100 0.0 1023226
02:00−9se61284100 0.0 1022224
05:00−9se71283100 0.0 1020254
08:00−7se71481100 0.0 1017289
11:00−6ese81579100 0.0 1015347
14:00−4se81488100 0.3 1013624
17:00−3se71296100 2.4 1010615
20:000se71398100 1.4 1008716